TURKSAT 6A

Last updated on Wed Sep 09 2026 00:03:04 GMT+0000 (Coordinated Universal Time)

1 60233U 24127A 26251.02577285 .00000126 00000+0 00000+0 0 9999 2 60233 0.0407 232.5556 0004206 325.3663 200.4443 1.00268640 7848
UTC large
Height (km)
Speed (km/s)
/
Latitude / Longitude
Inclination (degrees)
Orbital Period (minutes)
Azimuth
Elevation
Range (km)
Doppler Factor

Next 0 passes for location: London (51.5072 / 0.1276)

No passes found over London.
TURKSAT 6A